Preview of NWS' New Version of Forecast
This preview is not operational and should not be used for support decisions.
Latest weather observations around

Emporia, Emporia Municipal Airport (KEMP)

Using English Units (Switch to International System of Units)
Date/ Time (CDT) Wind (mph) Vis. (mi) Weather Sky Cond. Temp (°F) Rel. Humidity Wind Chill (°F) Heat Index (°F) Pressure Precip. (in)
Air Dwpt 6 hour Altimeter (inHg) Sea level (inHg) 1 hr 3 hr 6 hr
Max Min
Sep 23 11:53 SE 11 10 Clear CLR 75 60     60%   75 30.12 30.11      
Sep 23 10:53 SE 9 10 Clear CLR 73 62     68%   73 30.13 30.11      
Sep 23 09:53 SE 9 10 Clear CLR 67 63     87%     30.12 30.11      
Sep 23 08:53 SE 3   Clear CLR 61 61     100%     30.11 30.1      
Sep 23 07:53 NE 3   Mostly Clear FEW002 54 54     100%     30.11 30.1      
Sep 23 07:43 NE 5   Mostly Clear FEW002 53 53     100%     30.11        
Sep 23 06:53 S 6   Clear CLR 52 52     100%     30.08 30.07      
Sep 23 05:53 S 3   Clear CLR 56 56     100%     30.07 30.06      
Sep 23 04:53 S 6   Clear CLR 56 56     100%     30.06 30.05      
Sep 23 03:53 S 6   Clear CLR 55 55     100%     30.07 30.05      
Sep 23 02:53 SSW 3   Clear CLR 56 56     100%     30.08 30.06      
Sep 23 01:53 SSW 3   Clear CLR 58 58     100%     30.07 30.05      
Sep 23 00:53 SSW 5   Clear CLR 57 57     100%     30.07 30.05      
Sep 22 23:53 Calm   Clear CLR 58 58     100%     30.06 30.05      
Sep 22 22:53 Calm   Clear CLR 60 60     100%     30.06 30.04      
Sep 22 21:53 E 3   Clear CLR 61 61     100%     30.03 30.01      
Sep 22 20:53 N 5   Clear CLR 65 62     90%     30.01 29.99      
Sep 22 19:53 N 3   Clear   66 62     87%     29.98 29.96      
Sep 22 18:53 NNW 7   Clear CLR 71 63     76%   71 29.96 29.94      
Sep 22 17:53 NNW 13   Clear CLR 74 62     66%   74 29.94 29.92      
Sep 22 17:22 NW 11   Partly Cloudy SCT028 74 63     69%   74 29.94        
Sep 22 16:53 WNW 13   Mostly Cloudy BKN027 76 64     67%   76 29.93 29.91      
Sep 22 15:53 NW 13   Mostly Cloudy BKN027 78 67     69%   79 29.92 29.89      
Sep 22 15:51 NW 11 0.75 Haze BKN027 79 66     65%   79 29.92        
Sep 22 15:48 WNW 15 10 Mostly Cloudy BKN027 77 66     69%   78 29.92        
Sep 22 15:31 WNW 14 10 Mostly Clear FEW027 77 67     71%   78 29.91        
Sep 22 15:19 W 14 2.5 Haze SCT027 79 68     69%   80 29.9        
Sep 22 15:10 WNW 13 1.25 Haze SCT027 SCT033 77 68     74%   78 29.9        
Sep 22 15:05 WNW 13 0.5 Partly Cloudy FEW027 SCT033 79 68     69%   80 29.9        
Sep 22 14:58 WNW 14 1 Haze FEW029 80 68     67%   83 29.9        
Sep 22 14:53 WNW 13 10 Partly Cloudy SCT029 79 68     69%   80 29.9 29.86      
Sep 22 14:41 WNW 9 10 Partly Cloudy SCT027 80 68     67%   83 29.89        
Sep 22 14:33 W 9 1.25 Haze SCT026 80 68     67%   83 29.89        
Sep 22 14:22 W 13 1.5 Haze FEW024 79 68     69%   80 29.89        
Sep 22 14:08 W 9 0.25 Clear CLR 80 69     69%   83 29.89        
Sep 22 14:01 WNW 8 1.25 Haze FEW021 FEW060 79 69     72%   80 29.89        
Sep 22 13:53 NW 8 0.25 Partly Cloudy FEW021 SCT060 80 69     69%   83 29.88 29.85      
Sep 22 13:38 WNW 7 0.25 Cloudy SCT023 OVC060 80 70     71%   83 29.88        
Sep 22 13:28 WNW 8 1.25 Haze FEW021 BKN060 78 69     74%   79 29.89        
Sep 22 13:26 7 5 Haze FEW021 BKN060 77 69     77%   78 29.89        
Sep 22 13:19 W 8 0.25 Mostly Cloudy FEW020 BKN060 77 69     77%   78 29.89        
Sep 22 13:12 W 7 1.25 Haze FEW020 SCT060 78 69     74%   79 29.89        
Sep 22 12:53 WNW 7 10 Mostly Cloudy FEW017 SCT021 BKN065 78 70     76%   79 29.89 29.86     0
Sep 22 11:53 WNW 10 10 Cloudy FEW025 BKN042 OVC060 74 68     82%   75 29.9 29.87      
Sep 22 11:48 WNW 10 10 Cloudy FEW022 BKN042 OVC060 73 68     83%   74 29.9        
Sep 22 11:00 SW 20 4 Fog/Mist SCT017 SCT043 OVC065 76 72     88%   77 29.89        
Sep 22 10:53 SW 14 0.5 Fog BKN018 BKN043 OVC060 76 72     88%   77 29.89 29.86      
Sep 22 10:50 SW 15 0.75 Fog/Mist BKN018 BKN043 OVC060 75 72     89%   77 29.89        
Sep 22 10:42 WSW 13 1.5 Fog/Mist BKN018 BKN043 OVC060 76 72     88%   77 29.89        
Sep 22 10:26 SW 16 0.75 Fog/Mist BKN018 OVC060 76 72     88%   77 29.89        
Sep 22 10:21 WSW 17 10 Cloudy BKN018 OVC055 76 72     88%   77 29.89        
Sep 22 09:53 WSW 15 10 Cloudy OVC014 76 73     91%   77 29.88 29.85   0  
Sep 22 09:35 WSW 9 10 Mostly Cloudy BKN012 74 72     94%   75 29.87        
Sep 22 08:53 SSW 6 10 Mostly Cloudy FEW025 SCT042 BKN050 70 69     97%     29.86 29.83      
Sep 22 07:53 SW 7 10 Mostly Cloudy SCT050 BKN065 BKN075 67 67     100%     29.86 29.83 0    
Sep 22 06:53 S 13 8 Light Rain FEW090 OVC110 69 68     96%     29.87 29.84 0   1
Sep 22 06:00 S 9 6 Rain and Fog/Mist SCT009 BKN100 70 70     100%     29.89   0    
Sep 22 05:53 S 7 6 Rain and Fog/Mist SCT010 BKN019 OVC120 70 70     100%     29.88 29.86 0    
Sep 22 05:45 S 6 4 Rain and Fog/Mist SCT007 BKN012 OVC024 70 70     100%     29.89   0    
Sep 22 05:20 Calm 5 Rain and Fog/Mist BKN009 OVC014 70 70     100%     29.89   0    
Sep 22 05:14 Calm 5 Rain and Fog/Mist BKN014 OVC028 70 70     100%     29.89   0    
Sep 22 05:04 SW 3 8 Rain BKN016 BKN027 BKN049 70 70     100%     29.9   0    
Sep 22 04:53 WSW 5 10 Light Rain FEW029 SCT049 BKN110 70 70     100%     29.89 29.86 0    
Sep 22 03:53 SSW 11 10 Light Rain FEW055 SCT100 BKN120 71 71     100%   73 29.9 29.87 0 0  
Sep 22 02:53 S 21 10 Clear and Windy CLR 74 70     87%   75 29.89 29.86 0    
Sep 22 01:53 S 20 10 Light Rain BKN044 BKN110 73 71     94%   74 29.88 29.85 0    
Sep 22 00:53 S 16 10 Mostly Clear FEW110 75 70     84%   76 29.91 29.88      
Sep 21 23:53 S 14 10 Clear CLR 75 71     88%   76 29.91 29.88      
Sep 21 22:53 SSE 10 10 Clear CLR 74 72     94%   75 29.91 29.88      
Sep 21 21:53 S 17 10 Clear CLR 73 71     94%   74 29.88 29.86      
Sep 21 20:53 S 18 10 Clear CLR 74 71     91%   75 29.89 29.86      
Sep 21 19:53 SSE 17 10 Mostly Clear FEW075 75 73     94%   77 29.9 29.87      
Sep 21 18:53 S 18 10 Mostly Clear FEW065 76 73     91%   77 29.92 29.89      
Sep 21 17:53 S 18 10 Partly Cloudy SCT021 78 72     82%   79 29.91 29.88      
Sep 21 17:27 S 23 10 Mostly Cloudy and Windy BKN022 79 73     82%   82 29.9        
Sep 21 16:53 SSE 21 10 Partly Cloudy and Windy SCT026 79 73     82%   82 29.9 29.87      
Sep 21 16:35 S 17 10 Partly Cloudy SCT018 78 73     85%   80 29.9        
Sep 21 15:53 S 20 10 Mostly Cloudy and Windy BKN018 79 73     82%   82 29.91 29.88      
Sep 21 15:22 SSE 15 10 Mostly Cloudy BKN016 BKN100 79 73     82%   82 29.92        
Sep 21 14:53 S 23 10 Partly Cloudy and Windy SCT015 80 73     79%   84 29.93 29.91      
Sep 21 14:42 S 20 10 Mostly Cloudy and Windy SCT015 BKN110 79 73     82%   82 29.93        
Sep 21 14:32 S 18 10 Mostly Cloudy BKN014 79 72     79%   82 29.94        
Sep 21 14:20 SSE 22 10 Mostly Cloudy and Windy BKN015 78 72     82%   79 29.95        
Sep 21 13:53 S 20 10 Mostly Cloudy and Windy BKN013 BKN080 78 72     82%   79 29.95 29.93      
Sep 21 13:26 S 22 10 Mostly Cloudy and Windy SCT047 BKN080 76 72     88%   77 29.96        
Sep 21 13:11 S 20 10 Cloudy and Windy FEW010 OVC049 73 72     96%   75 29.97        
Sep 21 13:02 S 18 10 Cloudy BKN045 OVC055 72 71     97%   73 29.97        
Sep 21 12:53 S 20 10 Thunderstorms FEW008 BKN043 OVC055 71 71     100%   73 29.98 29.95 0   0
Sep 21 12:44 S 22 5 Thunderstorms and Rain and Fog/Mist FEW008 SCT024 OVC055 71 71     100%   73 29.97   0    
Sep 21 12:42 S 21 2 Thunderstorms and Rain and Fog/Mist SCT010 BKN024 OVC055 71 71     100%   73 29.97   0    
Sep 21 12:36 S 22 1.25 Thunderstorms and Heavy Rain and Fog/Mist SCT012 BKN026 OVC060 71 71     100%   73 29.97   0    
Sep 21 12:33 S 24 1.75 Thunderstorms and Heavy Rain and Fog/Mist FEW009 BKN012 OVC060 72 72     100%   74 29.97   0    
Sep 21 12:22 S 22 2.5 Thunderstorms and Heavy Rain and Fog/Mist OVC012 73 72     96%   75 29.96   0    
Sep 21 12:15 S 21 10 Cloudy and Windy OVC012 74 72     94%   75 29.97        
Sep 21 11:53 S 21 10 Cloudy and Windy OVC010 75 73     94%   77 29.96 29.93      
Sep 21 10:53 S 18 10 Cloudy OVC014 75 72     90%   76 29.97 29.94      
Sep 21 10:24 S 18 10 Cloudy OVC016 74 72     94%   75 29.96        
Sep 21 09:53 S 14 10 Cloudy BKN013 OVC020 73 72     96%   75 29.97 29.94 0 0  
Sep 21 09:09 S 18 10 Light Rain BKN013 73 71     94%   74 29.96   0    
Sep 21 08:53 S 17 10 Mostly Cloudy SCT011 BKN095 73 71     94%   74 29.95 29.93      
Sep 21 07:53 S 20 10 Mostly Cloudy and Windy FEW010 BKN100 73 71     94%   74 29.94 29.91      
Sep 21 07:27 S 16 10 Cloudy SCT009 OVC100 72 72     100%   74 29.94        
Sep 21 07:00 S 15 10 Cloudy BKN008 BKN012 OVC100 72 72     100%   74 29.95        
Sep 21 06:53 S 14 10 Cloudy BKN010 OVC090 72 72     100%   74 29.95 29.92      
Sep 21 06:43 S 16 10 Mostly Cloudy BKN010 72 72     100%   74 29.95        
Sep 21 06:36 S 16 10 Mostly Cloudy BKN008 BKN012 72 72     100%   74 29.95        
Sep 21 06:00 S 15 10 Partly Cloudy FEW009 SCT014 SCT019 72 71     97%   73 29.94        
Sep 21 05:53 S 13 10 Mostly Cloudy BKN009 BKN018 72 71     97%   73 29.94 29.91      
Sep 21 05:51 SSE 15 10 Mostly Cloudy SCT009 BKN014 BKN020 72 72     100%   73 29.94        
Sep 21 04:53 SSE 11 10 Cloudy BKN013 OVC021 72 71     97%   73 29.93 29.91      
Sep 21 04:44 SSE 13 10 Cloudy BKN013 OVC021 72 71     97%   73 29.93        
Sep 21 04:37 SSE 11 10 Cloudy SCT009 OVC017 72 71     97%   73 29.93        
Sep 21 04:10 S 14 10 Mostly Cloudy BKN014 72 71     97%   73 29.94        
Sep 21 03:53 S 10 10 Mostly Clear FEW012 71 70     96%   72 29.93 29.91      
Sep 21 02:53 S 16 10 Mostly Clear FEW013 71 71     100%   73 29.94 29.91      
Sep 21 02:33 S 14 10 Partly Cloudy FEW013 SCT023 71 71     100%   73 29.94        
Sep 21 02:21 S 15 10 Mostly Cloudy SCT012 SCT020 BKN025 72 71     97%   73 29.95        
Sep 21 01:53 S 15 10 Partly Cloudy FEW009 FEW012 SCT110 72 71     97%   73 29.94 29.92      
Sep 21 01:50 SSE 14 10 Partly Cloudy FEW009 FEW012 SCT110 72 72     100%   73 29.94        
Sep 21 01:38 S 15 10 Mostly Cloudy SCT012 BKN017 BKN110 72 71     97%   73 29.94        
Sep 21 00:53 S 14 10 Cloudy BKN013 OVC019 73 72     96%   75 29.94 29.92      
Sep 21 00:40 S 11 10 Cloudy SCT009 OVC018 73 72     96%   75 29.95        
Sep 21 00:24 SSE 15 10 Cloudy BKN009 OVC017 73 72     96%   75 29.95        
Sep 20 23:53 SSE 14 10 Cloudy OVC012 73 72     96%   75 29.94 29.92      
Sep 20 23:03 SSE 11 10 Cloudy SCT010 BKN014 OVC021 72 72     100%   74 29.94        
Sep 20 22:53 SSE 11 10 Cloudy BKN009 OVC019 72 72     100%   74 29.94 29.91      
Sep 20 21:53 SSE 13 10 Mostly Cloudy BKN009 BKN020 72 71     97%   73 29.93 29.91      
Sep 20 21:26 SSE 13 10 Cloudy BKN009 BKN019 OVC045 72 71     97%   73 29.94        
Sep 20 21:18 SSE 13 10 Cloudy SCT009 BKN013 OVC045 72 71     97%   73 29.94        
Sep 20 20:53 SSE 13 10 Cloudy FEW009 OVC045 72 71     97%   73 29.94 29.91      
Sep 20 20:27 SE 11 10 Cloudy FEW009 OVC042 71 71     100%   73 29.93        
Sep 20 20:05 SSE 9 10 Cloudy FEW011 SCT016 OVC035 71 71     100%   73 29.94        
Sep 20 19:53 SSE 9 10 Cloudy SCT011 BKN016 OVC031 72 71     97%   73 29.94 29.92      
Sep 20 18:53 SSE 13 10 Clear   72 71     97%   73 29.93 29.91     0
Sep 20 18:51 SSE 10 10 Clear   72 72     100%   73 29.93        
Sep 20 18:12 SSE 10 10 Cloudy BKN013 OVC019 72 71     97%   73 29.93        
Sep 20 18:05 SSE 10 10 Cloudy FEW009 BKN015 OVC021 72 71     97%   73 29.93        
Sep 20 17:53 SSE 16 10 Cloudy BKN009 OVC018 72 71     97%   73 29.93 29.91 0    
Sep 20 16:53 SE 13 4 Clear   73 73     100%   75 29.93 29.91 0    
Sep 20 16:24 S 13 3 Light Rain and Fog/Mist BKN009 OVC016 72 71     97%   73 29.95   0    
Sep 20 15:53 SSE 13 10 Cloudy SCT008 BKN012 OVC025 72 71     97%   73 29.95 29.93 0 0  
Sep 20 15:30 SSE 13 8 Light Rain BKN009 OVC027 73 73     100%   75 29.95   0    
Sep 20 15:16 SSE 16 7 Light Rain SCT009 BKN020 OVC029 73 72     96%   75 29.95   0    
Sep 20 14:53 SSE 13 4 Light Rain and Fog/Mist BKN009 BKN018 OVC026 72 71     97%   73 29.97 29.94 0    
Sep 20 14:33 SSE 17 4 Light Rain and Fog/Mist SCT008 BKN013 OVC022 71 71     100%   73 29.97   0    
Sep 20 14:23 SE 16 5 Light Rain and Fog/Mist BKN010 OVC016 71 71     100%   73 29.98   0    
Sep 20 13:53 SE 14 4 Light Rain and Fog/Mist BKN007 BKN014 OVC031 71 71     100%   73 29.98 29.96 0    
Sep 20 13:48 SSE 13 3 Light Rain and Fog/Mist BKN007 BKN013 OVC031 72 72     100%   73 29.98   0    
Sep 20 13:41 SE 13 3 Light Rain and Fog/Mist SCT007 BKN010 OVC028 71 71     100%   73 29.99   0    
Sep 20 13:32 SSE 15 4 Light Rain and Fog/Mist SCT007 BKN023 OVC031 71 71     100%   73 29.99   0    
Sep 20 13:17 SSE 20 2.5 Light Rain and Fog/Mist SCT007 OVC018 70 70     100%     30   0    
Sep 20 12:53 SSE 17 2 Light Rain and Fog/Mist BKN006 OVC014 70 70     100%     30 29.98 0   0
Sep 20 12:45 SSE 13 2.5 Light Rain and Fog/Mist SCT007 BKN010 OVC016 71 71     100%   73 30   0    
Sep 20 12:29 SE 11 3 Light Rain and Fog/Mist BKN008 BKN012 OVC017 71 71     100%   73 30.01   0    
Sep 20 12:22 SE 15 3 Light Rain and Fog/Mist SCT006 BKN011 OVC025 71 71     100%   73 30.01   0    
Sep 20 12:09 SE 10 3 Light Rain and Fog/Mist SCT009 BKN017 OVC022 71 71     100%   73 30.02   0    
Sep 20 12:02 SSE 15 2.5 Light Rain and Fog/Mist SCT017 BKN022 OVC035 71 71     100%   73 30.02   0    
Sep 20 11:53 SSE 15 3 Light Rain and Fog/Mist OVC018 71 69     93%   72 30.02 29.99 0    
Sep 20 10:53 SSE 14 10 Cloudy BKN022 OVC036 77 68     74%   78 30.01 29.98      
May 15 08:14 Calm 10 Cloudy FEW017 OVC036 64 62     93%     30        
May 15 05:53 W 3 10 Mostly Cloudy BKN046 62 61     96%     29.94 29.93      
May 15 01:53 Calm 10 Light Rain SCT050 SCT070 BKN095 64 61     90%     29.94 29.91 0    
May 14 18:32   1.75 Rain and Fog/Mist FEW050 BKN060 OVC090 69 65     87%     29.82   0    
May 13 13:53 S 18 10 Clear CLR 87 69     55%   91 29.91 29.88      
May 13 06:53 S 14 10 Clear CLR 67 63     87%     29.94 29.91      
May 12 13:53 S 18 10 Cloudy OVC048 82 65     56%   84 29.85 29.82      
May 12 02:53 S 17 10 Clear CLR 72 61     68%   72 29.8 29.77      
Jun 12 07:53   10 Clear CLR 72 67     84%   73 29.87 29.83      
Jun 12 01:53 S 16 10 Clear CLR 73 66     79%   74 29.85 29.81      
Jun 11 11:53   10 Clear CLR 84 67     57%   87 29.81 29.77      
Jun 10 23:53 SSE 17 10 Clear CLR 74 67     79%   75 29.79 29.76      
Jun 10 21:53 SSE 17 10 Clear   77 69     77%   78 29.76 29.73      
Jun 10 12:53 S 22 10 Mostly Clear and Windy FEW028 82 69     65%   85 29.77 29.74      
Jun 10 09:20 S 22 10 Partly Cloudy and Windy SCT018 73 64     73%   73 29.8        
Jun 10 07:53 S 21 10 Mostly Cloudy and Windy BKN022 68 62     81%     29.81 29.78      
Jun 08 21:53 S 7 10 Clear CLR 65 55     70%     29.91 29.89      
Jun 08 18:53 SSE 6 10 Clear CLR 78 51     39%   77 29.92 29.9      
Jun 08 09:53 S 6 10 Clear CLR 73 50     44%   72 30.07 30.05      
Jun 08 07:53 Calm 10 Clear CLR 60 56     86%     30.07 30.05      
Jun 06 02:53 E 6 10 Clear CLR 68 62     81%     29.93 29.89